Location: Auckland
(36.8670°S, 174.7670°E)
Time: 04:38:56
(UTC+12:00)

Courier 1B Rocket - Pass Details

Date: 26 July 2019
Orbit: 920 x 1202 km, 28.3° (Epoch: 22 August)

Event Time Altitude Azimuth Distance (km) Brightness Sun altitude
Rises 08:28:49 0° 277° (W) 4,014 7.8 10.3°
Reaches altitude 10° 08:32:51 10° 296° (WNW) 2,999 7.3 11.0°
Maximum altitude 08:37:11 17° 332° (NNW) 2,472 7.3 11.7°
Drops below altitude 10° 08:41:22 10° 9° (N) 2,864 8.3 12.4°
Sets 08:45:06 0° 29° (NNE) 3,753 9.4 13.0°
